Regional Weather Roundup
Issued by NWS Charleston, SC

Current Version | Previous Version | Text Only | Print | Product List | Glossary Off
Versions: 1 2 3 4 5 6 7 8 9 10 11 12 13 14 15 16 17 18 19 20 21 22 23 24 25 26 27 28 29 30 31 32 33 34 35 36 37 38 39 40 41 42 43 44 45 46 47 48 49 50

000
ASUS42 KCHS 212213
RWRCHS

Regional Weather Roundup
National Weather Service Charleston SC
500 PM EST WED FEB 21 2018

NOTE: "fair" indicates few or no clouds below 12,000 feet with no
significant weather and/or obstructions to visibility.

Not all stations are quality controlled. Use data with caution,
especially dewpoint observations.

SCZ027-030-031-034>040-042>050-212300-
...Southeast South Carolina...

CITY           SKY/WX    TMP DP  RH WIND       PRES   REMARKS
N Charleston   FAIR      77  66  68 S10       30.41S
Waterfront Prk   N/A     71  67  87 S7        30.26F
Mount Pleasant FAIR      73  68  83 SE7       30.42S
Johns Island   FAIR      75  68  78 S8        30.42S
Pinopolis        N/A     77  68  73 S5G12     30.33S
Moncks Corner  FAIR      75  64  69 S9        30.40S
Summerville    FAIR      77  64  65 S8        30.40S
Beaufort MCAS  FAIR      75  69  81 S9        30.40S
Beaufort Arpt  FAIR      75  66  73 SE7       30.40S HAZE
Hilton Head Is MOSUNNY   73  68  83 SE6       30.41F
Walterboro     FAIR      75  64  69 SE9       30.40S
Allendale      FAIR      79  66  65 SE7       30.36S

...Southern Midlands and Pee Dee...

CITY           SKY/WX    TMP DP  RH WIND       PRES   REMARKS
Georgetown     FAIR      73  70  88 S9        30.43S
Kingstree      FAIR      79  63  57 S5        30.39S
Orangeburg     CLOUDY    78  65  63 S6        30.37F
Barnwell         N/A     82  68  61 SE10      30.37S
Aiken          FAIR      81  61  50 S7        30.39F
Manning        FAIR      77  63  61 MISG      30.39S
Columbia       FAIR      82  66  58 S9        30.35S
Sumter         MOSUNNY   79  65  62 SE10      30.36F
Florence       CLOUDY    80  63  55 SW7       30.39S
Myrtle Beach   FAIR      71  66  84 S10       30.43F
N Myrtle Beach FAIR      71  66  84 S9        30.42F

$$

GAZ063-065-086>088-099>101-113>116-118-119-134>141-150-212300-
...Southeast Georgia...

CITY           SKY/WX    TMP DP  RH WIND       PRES   REMARKS
Savannah Arpt  FAIR      79  65  62 S14       30.38S
Hunter AAF     FAIR      77  73  87 S9G17     30.36S
Fort Stewart   FAIR      80  62  54 SE9       30.35S
Statesboro     CLOUDY    82  62  50 SE9       30.36S
Sylvania       MOCLDY    80  68  67 SE5       30.37S
Claxton        CLOUDY    82  67  61 NE7       30.35S

...CSRA, Central and far Southeast Georgia...

CITY           SKY/WX    TMP DP  RH WIND       PRES   REMARKS
Thomson        FAIR      81  63  54 CALM      30.39S
Augusta-Bush   FAIR      83  62  49 S9        30.33F
Augusta-Daniel FAIR      82  62  50 S6        30.35F
Swainsboro     FAIR      82  64  54 SE10      30.35F
Vidalia        CLOUDY    82  64  54 SE6       30.35S
Eastman        MOCLDY    86  47  25 S10       30.36S
Hazlehurst     FAIR      84  53  33 S6        30.33S
Alma           PTSUNNY   85  61  44 S9        30.33F
Waycross       PTSUNNY   82  62  50 S8        30.34S
Jesup          FAIR      82  61  47 SE7       30.37R
Baxley         CLOUDY    81  61  50 SE8       30.34S
Brunswick      FAIR      77  64  65 S12       30.39S
Saint Simons   FAIR      75  68  78 SE9       30.38S

$$

SCZ027-028-034-036>038-045-046-048>050-GAZ119-141-212300-
...Lake and Supplemental Coastal Observations...

STATION/POSITION TIME  TEMP    WIND        PRES    WAVE   SWELL
                       AIR SEA DIR/SP/G            HT/PER HT/PER/DIR
                 (UTC) (F)     (DEG/KT/KT) (MB)    (FT/S) (FT/S/D)
Winyah Bay       2045   75     190/  8     1030.0
Lake Murray      2120   77      CALM  /  1 1027.1
ACE Basin NERRS  2045   76     170/  2     1030.0
Fort Pulaski     2148   74 61  150/  6/  8 1029.6F
Sapelo Island    2100   79     160/  7     1029.0

$$

ANZ835-935-AMZ111-154-330-350-352-354-370-450-454-472-212300-
...C-MAN and Buoy Observations...

STATION/POSITION TIME  TEMP    WIND        PRES    WAVE   SWELL
                       AIR SEA DIR/SP/G            HT/PER HT/PER/DIR
                 (UTC) (F)     (DEG/KT/KT) (MB)    (FT/S) (FT/S/D)
Buoy 41004       2150   72 68  140/  2/  4 1030.3S   4/ 8   3/150/ 8
Buoy 41008       2150   66 62  100/  4/  6 1029.2S   3/ 8   3/110/ 8
Folly Beach CMAN 2200   67      CALM  /  2 1030.7F
Capers Nearshore 2108   63 60  120/  4/  6 1030.0F
Fripp Nearshore  2108   65 60  110/  4/  6 1029.3R


STATION/POSITION TIME  TEMP    WIND        PRES    WAVE   SWELL
                       AIR SEA DIR/SP/G            HT/PER HT/PER/DIR
                 (UTC) (F)     (DEG/KT/KT) (MB)    (FT/S) (FT/S/D)
5E St. Marys GA  2200      67                N/A     3/ 8   2/ 70/12
Frying Pan Buoy  2150   72 71  180/  4/  4 1031.0R   4/ 8   3/150/ 8
Buoy 41025       2150   72 71  210/ 10/ 12 1031.3F   4/11   3/ 60/11
Cape Lookout NC  2200          200/  8/ 10 1031.3S
Buoy 41002       2150   72 75  120/ 10/ 12 1032.0    5/ 8   5/120/ 8
Buoy 41010       NOT AVBL
St Augustine FL  2200   70 64  110/  9/  9 1028.6S


$$




USA.gov is the U.S. government's official web portal to all federal, state and local government web resources and services.